Date,TemperatureHighF,TemperatureAvgF,TemperatureLowF,DewpointHighF,DewpointAvgF,DewpointLowF,HumidityHigh,HumidityAvg,HumidityLow,PressureMaxIn,PressureMinIn,WindSpeedMaxMPH,WindSpeedAvgMPH,GustSpeedMaxMPH,PrecipitationSumIn
2013-1-1,42,37,31,33,29,21,80,72,63,29.63,29.53,1,0,1,0.00
2013-1-2,43,35,28,32,25,18,84,67,46,29.82,29.61,4,1,4,0.00
2013-1-3,42,30,21,27,19,14,77,64,49,29.84,29.75,1,0,1,0.00
2013-1-4,46,32,23,28,20,15,74,61,43,29.84,29.76,6,1,6,0.00
2013-1-5,46,35,23,27,22,15,72,59,44,29.99,29.80,3,1,3,0.00
2013-1-6,47,39,27,34,28,21,78,65,55,29.79,29.67,3,0,3,0.00
2013-1-7,44,37,26,29,26,19,77,66,55,30.07,29.79,4,1,4,0.00
2013-1-8,56,37,24,36,26,19,82,66,40,30.04,29.95,3,0,3,0.00
2013-1-9,58,42,26,46,34,20,84,73,51,30.06,29.91,4,1,4,0.00
2013-1-10,57,43,31,37,31,24,78,63,47,30.21,30.06,2,0,2,0.00
2013-1-11,46,42,36,42,36,30,89,79,62,30.07,29.74,4,1,4,0.01
2013-1-12,72,52,37,58,46,35,94,83,61,29.81,29.73,3,0,3,0.00
2013-1-13,68,57,46,60,52,43,95,84,69,29.74,29.64,5,1,5,0.00
2013-1-14,60,53,39,56,47,37,92,82,72,29.93,29.63,5,2,5,0.18
2013-1-15,39,37,34,37,35,33,94,93,91,29.95,29.76,3,1,3,0.57
2013-1-16,47,39,34,45,37,32,95,94,92,29.75,29.48,3,1,3,0.20
2013-1-17,45,40,35,43,34,29,92,80,62,29.74,29.62,4,1,4,0.00
2013-1-18,41,35,28,29,20,14,82,56,37,30.06,29.74,3,1,3,0.00
2013-1-23,29,21,11,13,3,-3,67,46,30,29.89,29.68,4,1,4,0.00
2013-1-24,26,20,12,15,8,2,83,63,41,30.10,29.63,5,1,5,0.00
2013-1-25,23,18,10,17,10,1,78,70,53,30.09,29.63,6,2,6,0.00
2013-1-26,41,29,22,28,20,16,82,70,53,30.02,29.63,5,1,5,0.00
2013-1-27,42,31,18,24,20,12,77,65,48,30.16,30.02,5,1,5,0.00
2013-1-28,54,41,32,45,35,23,90,80,70,30.04,29.74,5,1,5,0.04
2013-1-29,74,57,40,58,48,37,92,73,53,29.78,29.63,7,1,7,0.00
2013-1-30,67,59,55,60,54,49,96,84,74,29.62,28.98,9,3,9,1.94
2013-1-31,54,38,28,53,26,16,95,63,47,29.52,28.94,10,4,10,0.06
2013-2-1,30,24,15,24,10,2,79,55,42,29.95,29.41,7,2,7,0.00
2013-2-2,33,22,13,23,12,3,84,67,43,29.94,29.60,7,2,7,0.00
2013-2-3,38,31,27,30,22,14,85,70,54,29.60,29.43,5,2,5,0.00
2013-2-4,36,29,18,24,17,10,73,60,50,29.69,29.51,6,1,6,0.00
2013-2-5,50,40,31,37,31,25,79,70,59,29.55,29.47,6,2,6,0.00
2013-2-6,50,39,28,33,28,20,84,66,46,29.93,29.55,4,1,4,0.00
2013-2-7,40,33,24,30,25,18,81,73,65,29.99,29.78,5,1,5,0.00
2013-2-8,46,36,32,39,30,23,90,77,61,29.76,29.43,9,1,9,0.03
2013-2-9,45,34,23,22,16,11,63,50,33,29.99,29.64,6,1,6,0.00
2013-2-10,45,33,18,25,18,10,74,54,38,30.04,29.83,5,2,5,0.01
2013-2-11,62,50,37,51,37,22,88,64,30,29.81,29.43,10,3,10,0.01
2013-2-12,60,49,36,27,23,18,59,38,22,29.63,29.50,4,1,4,0.00
2013-2-13,44,36,33,32,26,19,90,69,45,29.57,29.28,2,0,2,0.07
2013-2-14,49,38,25,36,27,21,89,68,44,29.65,29.44,4,1,4,0.01
2013-2-15,57,39,24,38,29,19,91,71,45,29.68,29.55,8,1,8,0.15
2013-2-16,36,32,24,30,24,14,89,73,57,29.63,29.49,4,1,4,0.00
2013-2-17,28,23,18,15,9,4,72,55,42,29.82,29.51,9,2,9,0.00
2013-2-18,46,31,12,22,14,4,70,51,32,29.96,29.74,5,1,5,0.00
2013-2-19,50,39,34,40,28,18,88,66,46,29.74,29.37,10,4,10,0.03
2013-2-20,41,33,22,19,15,10,62,49,37,29.77,29.52,12,2,12,0.00
2013-2-21,41,29,17,21,15,9,71,56,42,29.84,29.74,5,1,5,0.00